GSAT-15 (41028 NORAD) Tracking and Keplerian Element Data

This shows tracking and keplerian element data for the satellite.

Feedback or suggestion? Click here.




ElementValue
Catalog41028
NameGSAT-15
Epoch Orbit985
Epoch Day197.92172956
Epoch Year2018
RAAN104.5059
Inclination0.0826
Eccentricity0.000224
Argument of Perigee346.8167
Mean Anonmoly268.6851
Mean Motion1.00272167
Decay Rate-2.78E-06
L11 41028U 15065A 18197.92172956 -.00000278 00000-0 00000-0 0 9997
L22 41028 0.0826 104.5059 0002240 346.8167 268.6851 1.00272167 9854

Live tracking and technical data element details for GSAT-15 (NORAD 41028). GSAT-15 can be tracked NOW for your location showing map with azimuth and elevation plus other details from your city location.

Track the satellite on the map from your city or location and see movement details for azimuth, elevation, latitude, longitude, range, height, and movement on the map or in text.







IsCatalogInMostPopularTable: catalog: 41028, numindb: 55
Update: records affected: 1



GetName: 41028 GSAT-15

Hit Count: updated at: Fri, 20 Jul 2018 02:43:18 GMT